Weather History for Hatteras, NC

Change the Weather History Date:

Friday, June 21, 2013

  Actual Average Record
Temperature  
Mean Temperature 79 °F 77 °F  
Max Temperature 87 °F 82 °F 90 °F (1924)
Min Temperature 71 °F 71 °F 61 °F (1880)
Degree Days  
Heating Degree Days 0 0  
Month to date heating degree days 0 0  
Since 1 June heating degree days 0 0  
Since 1 July heating degree days 2420 2584  
Cooling Degree Days 14 12  
Month to date cooling degree days 262 196  
Year to date cooling degree days 424 339  
Since 1 June cooling degree days 262 196  
Growing Degree Days 28 (Base 50)    
Moisture  
Dew Point 71 °F    
Average Humidity 77    
Maximum Humidity 93    
Minimum Humidity 61    
Precipitation  
Precipitation T in 0.14 in 3.15 in (1960)
Month to date precipitation 3.82 2.73  
Year to date precipitation 23.01 23.97  
Snow  
Snow 0.00 in - - ()
Month to date snowfall 0.0  
Since 1 July snowfall 0.0  
Snow Depth 0.00 in    
Sea Level Pressure  
Sea Level Pressure 30.19 in    
Wind  
Wind Speed 8 mph (ENE)    
Max Wind Speed 14 mph    
Max Gust Speed 22 mph    
Visibility 10 miles    
Events      
T = Trace of Precipitation, MM = Missing Value Source: NWS Daily Summary

Daily Weather History Graph

Daily Weather History Graph

Search for Another Location

Airport:

Trip Planner

Search our weather history database for the weather conditions in past years. The results will help you decide how hot, cold, wet, or windy it might be!

Date:

Astronomy

Jun. 21, 2013 Rise Set
Actual Time 5:48 AM EDT 8:20 PM EDT
Civil Twilight 5:18 AM EDT 8:50 PM EDT
Nautical Twilight 4:41 AM EDT 9:27 PM EDT
Astronomical Twilight 4:00 AM EDT 10:08 PM EDT
Moon 6:30 PM EDT (6/21) 3:58 AM EDT (6/21)
Length of Visible Light 15h 31m
Length of Day
14h 32m
Waxing Gibbous, 95% of the Moon is Illuminated
Jun 21
Waxing Gibbous
Jun 23
Full
Jun 30
Last Quarter
Jul 8
New
Jul 15
First Quarter

Hourly Weather History & Observations

Time (EDT) Temp. Heat Index Dew Point Humidity Pressure Visibility Wind Dir Wind Speed Gust Speed Precip Events Conditions
12:51 AM 72.0 °F - 68.0 °F 87% 30.20 in 10.0 mi NE 6.9 mph - N/A   Clear
1:51 AM 72.0 °F - 68.0 °F 87% 30.18 in 10.0 mi NE 8.1 mph - N/A   Clear
2:51 AM 72.0 °F - 68.0 °F 87% 30.16 in 10.0 mi NE 8.1 mph - N/A   Clear
3:51 AM 71.1 °F - 69.1 °F 93% 30.15 in 10.0 mi Variable 6.9 mph - N/A   Clear
4:51 AM 72.0 °F - 69.1 °F 91% 30.16 in 10.0 mi NNE 4.6 mph - N/A   Clear
5:51 AM 72.0 °F - 69.1 °F 91% 30.17 in 10.0 mi NE 6.9 mph - N/A   Clear
6:51 AM 73.0 °F - 70.0 °F 90% 30.18 in 10.0 mi NE 9.2 mph 17.3 mph N/A   Clear
7:05 AM 73.4 °F - 69.8 °F 88% 30.18 in 10.0 mi NNE 9.2 mph - N/A   Partly Cloudy
7:51 AM 75.0 °F - 70.0 °F 84% 30.19 in 10.0 mi NE 10.4 mph 17.3 mph N/A   Clear
8:51 AM 78.1 °F - 71.1 °F 79% 30.19 in 10.0 mi NNE 8.1 mph 19.6 mph 0.00 in   Clear
9:51 AM 81.0 °F 84.9 °F 71.1 °F 72% 30.19 in 10.0 mi NE 9.2 mph - N/A   Clear
10:51 AM 82.0 °F 86.7 °F 72.0 °F 71% 30.19 in 10.0 mi NE 8.1 mph 17.3 mph N/A   Clear
11:51 AM 82.9 °F 87.5 °F 71.1 °F 67% 30.20 in 10.0 mi NE 13.8 mph 21.9 mph N/A   Scattered Clouds
12:09 PM 84.2 °F 89.6 °F 71.6 °F 66% 30.20 in 10.0 mi NE 9.2 mph 17.3 mph N/A   Mostly Cloudy
12:19 PM 84.2 °F 89.6 °F 71.6 °F 66% 30.21 in 10.0 mi NE 9.2 mph - N/A   Scattered Clouds
12:51 PM 82.9 °F 88.0 °F 72.0 °F 69% 30.20 in 10.0 mi NE 8.1 mph - N/A   Scattered Clouds
1:00 PM 84.2 °F 89.6 °F 71.6 °F 66% 30.20 in 10.0 mi ENE 8.1 mph - N/A   Mostly Cloudy
1:41 PM 84.2 °F 89.6 °F 71.6 °F 66% 30.19 in 10.0 mi ESE 8.1 mph - N/A   Mostly Cloudy
1:51 PM 84.9 °F 90.7 °F 72.0 °F 65% 30.19 in 10.0 mi ESE 8.1 mph - N/A   Mostly Cloudy
2:51 PM 86.0 °F 91.5 °F 71.1 °F 61% 30.19 in 10.0 mi East 8.1 mph - N/A   Partly Cloudy
3:51 PM 84.0 °F 89.0 °F 71.1 °F 65% 30.19 in 10.0 mi ESE 11.5 mph - N/A   Clear
4:51 PM 84.0 °F 89.0 °F 71.1 °F 65% 30.18 in 10.0 mi ESE 8.1 mph - N/A   Clear
5:51 PM 82.0 °F 86.3 °F 71.1 °F 69% 30.17 in 10.0 mi ESE 8.1 mph - N/A   Partly Cloudy
6:51 PM 79.0 °F - 72.0 °F 79% 30.19 in 10.0 mi Variable 4.6 mph - 0.00 in   Overcast
7:51 PM 75.9 °F - 70.0 °F 82% 30.19 in 10.0 mi East 5.8 mph - N/A   Clear
8:51 PM 75.0 °F - 71.1 °F 87% 30.20 in 10.0 mi ENE 6.9 mph - N/A   Clear
9:51 PM 75.0 °F - 70.0 °F 84% 30.20 in 10.0 mi ENE 6.9 mph - N/A   Clear
10:51 PM 75.0 °F - 71.1 °F 87% 30.20 in 10.0 mi East 6.9 mph - N/A   Clear
11:51 PM 75.0 °F - 71.1 °F 87% 30.21 in 10.0 mi East 6.9 mph - N/A   Clear